Location: Home
(42.5358°N, 72.7383°W)
Time: 20:56:49
(UTC-05:00)

Altair - Pass Details

Date: 14 December 2021
Orbit: 1501 x 1683 km, 47.2° (Epoch: 26 January)

Event Time Altitude Azimuth Distance (km) Brightness Sun altitude
Rises 20:22:08 0° 292° (WNW) 4,682 10.8 -43.9°
Reaches altitude 10° 20:26:02 10° 278° (W) 3,676 10.1 -44.6°
Maximum altitude 20:32:33 22° 232° (SW) 2,816 9.1 -45.8°
Enters shadow 20:34:54 20° 212° (SSW) 2,934 9.0 -46.2°
